Weather in Macedonia

United States     41°18′48″N   81°30′30″W
temp.,
°C
wind,
m/s
gust,
m/s
humid.,
%
clouds,
%
prec.,
mm/h
press.,
hPa
HPBL,
m
26 may, thu
thu2623:00+18se61678100 0.0 1017471
02:00+19s61573100 0.1 1016844
05:00+17s61581100 0.1 1016553
08:00+17s51481100 0.3 1016572
11:00+20s61379100 0.0 1015952
14:00+24ssw6116879 0.3 10131489
17:00+20ssw61295100 3.0 1012741
20:00+19s51396100 8.8 1011776
27 may, fri
fri2723:00+18s51397100 0.6 1011960
02:00+18s51296100 1.1 1009795
05:00+17ssw41295100 0.8 1008753
08:00+16ssw51192100 0.8 1009617
11:00+19ssw596950 0.0 10091073
14:00+22sw696155 0.3 10081732
17:00+22ssw58605 0.7 10071565
20:00+17ssw3779100 0.9 1007378
28 may, sat
sat2823:00+15ssw3889100 0.0 1007323
02:00+13s2594100 0.0 1007199
05:00+13sw249392 0.0 1007184
08:00+14nw359598 0.1 1009339
11:00+16nnw457669 0.0 1011707
14:00+20nnw445825 0.0 10111127
17:00+19nw445911 0.0 10121124
20:00+16nw118099 0.0 101324
29 may, sun
sun2923:00+13sse118796 0.0 101411
02:00+12sse238880 0.0 101540
05:00+12s249493 0.0 101681
08:00+15s3785100 0.0 1016242
11:00+20ssw5769100 0.0 1016909
14:00+24ssw565420 0.0 10151234
17:00+25ssw465515 0.0 10141230
20:00+21s397791 0.0 1014304
30 may, mon
mon3023:00+19s278199 0.0 1015161
02:00+19s4147887 0.1 1015419
05:00+18ssw31389100 0.2 1016344
08:00+20ssw41482100 0.2 1018442
11:00+26sw61162100 0.0 1018719
14:00+29wsw695515 0.0 10171094
17:00+29wsw585814 0.0 10171103
20:00+25wsw387823 0.0 1018330